Weather History for Gulf Shores, AL

Change the Weather History Date:

Saturday, July 27, 2013

  Actual Average (KPNS) Record (KPNS)
Temperature  
Mean Temperature 76 °F 82 °F  
Max Temperature 82 °F 90 °F 98 °F (1970)
Min Temperature 71 °F 74 °F 70 °F (1894)
Cooling Degree Days 12 17  
Month to date cooling degree days 459  
Year to date cooling degree days 1372  
Since 1 June cooling degree days 924  
Growing Degree Days 26 (Base 50)    
Moisture  
Dew Point 71 °F    
Average Humidity 81    
Maximum Humidity 94    
Minimum Humidity 65    
Precipitation  
Precipitation 0.56 in 0.24 in 2.58 in (1894)
Month to date precipitation 6.43  
Year to date precipitation 37.03  
Sea Level Pressure  
Sea Level Pressure 29.96 in    
Wind  
Wind Speed 2 mph (SW)    
Max Wind Speed 20 mph    
Max Gust Speed 25 mph    
Visibility 10 miles    
Events Rain , Thunderstorm    
T = Trace of Precipitation, MM = Missing Value Source: NWS Daily Summary

Daily Weather History Graph

Daily Weather History Graph

Search for Another Location

Airport:

Trip Planner

Search our weather history database for the weather conditions in past years. The results will help you decide how hot, cold, wet, or windy it might be!

Date:

Astronomy

Jul. 27, 2013 Rise Set
Actual Time 6:06 AM CDT 7:47 PM CDT
Civil Twilight 5:39 AM CDT 8:14 PM CDT
Nautical Twilight 5:08 AM CDT 8:45 PM CDT
Astronomical Twilight 4:35 AM CDT 9:18 PM CDT
Moon 11:05 PM CDT (7/27) 11:17 AM CDT (7/27)
Length of Visible Light 14h 34m
Length of Day
13h 41m
Waning Gibbous, 70% of the Moon is Illuminated
Jul 27
Waning Gibbous
Jul 29
Last Quarter
Aug 6
New
Aug 14
First Quarter
Aug 20
Full

Hourly Weather History & Observations

Time (CDT) Temp. Heat Index Dew Point Humidity Pressure Visibility Wind Dir Wind Speed Gust Speed Precip Events Conditions
12:15 AM 77.0 °F - 71.6 °F 83% 29.98 in 7.0 mi Calm Calm - N/A   Clear
12:35 AM 77.0 °F - 71.6 °F 83% 29.98 in 7.0 mi Calm Calm - N/A   Clear
12:55 AM 77.0 °F - 71.6 °F 83% 29.98 in 10.0 mi Calm Calm - N/A   Clear
1:15 AM 77.0 °F - 71.6 °F 83% 29.97 in 7.0 mi Calm Calm - N/A   Clear
1:35 AM 77.0 °F - 71.6 °F 83% 29.97 in 10.0 mi Calm Calm - N/A   Clear
1:55 AM 80.6 °F 85.4 °F 73.4 °F 79% 29.97 in 10.0 mi SW 4.6 mph - N/A   Clear
2:15 AM 80.6 °F 84.6 °F 71.6 °F 74% 29.97 in 10.0 mi SW 4.6 mph - N/A   Clear
2:35 AM 78.8 °F - 71.6 °F 78% 29.96 in 10.0 mi WSW 3.5 mph - N/A   Clear
2:55 AM 78.8 °F - 71.6 °F 78% 29.96 in 10.0 mi West 3.5 mph - N/A   Clear
3:15 AM 78.8 °F - 71.6 °F 78% 29.96 in 10.0 mi Calm Calm - N/A   Clear
3:35 AM 78.8 °F - 71.6 °F 78% 29.96 in 10.0 mi Calm Calm - N/A   Clear
3:55 AM 77.0 °F - 71.6 °F 83% 29.94 in 10.0 mi Calm Calm - N/A   Clear
4:15 AM 77.0 °F - 71.6 °F 83% 29.94 in 10.0 mi Calm Calm - N/A   Clear
4:35 AM 78.8 °F - 73.4 °F 83% 29.95 in 10.0 mi West 4.6 mph - N/A   Clear
4:55 AM 78.8 °F - 73.4 °F 83% 29.95 in 10.0 mi Calm Calm - N/A   Clear
5:15 AM 78.8 °F - 73.4 °F 83% 29.95 in 10.0 mi WSW 4.6 mph - N/A   Clear
5:35 AM 78.8 °F - 73.4 °F 83% 29.96 in 10.0 mi SW 4.6 mph - N/A   Clear
5:55 AM 80.6 °F 85.4 °F 73.4 °F 79% 29.96 in 10.0 mi WSW 4.6 mph - N/A   Clear
6:15 AM 80.6 °F 85.4 °F 73.4 °F 79% 29.97 in 10.0 mi WSW 3.5 mph - N/A   Clear
6:35 AM 78.8 °F - 73.4 °F 83% 29.97 in 10.0 mi West 3.5 mph - N/A   Clear
6:55 AM 80.6 °F 85.4 °F 73.4 °F 79% 29.97 in 10.0 mi West 4.6 mph - N/A   Scattered Clouds
7:15 AM 80.6 °F 85.4 °F 73.4 °F 79% 29.97 in 10.0 mi West 4.6 mph - N/A   Clear
7:35 AM 80.6 °F 85.4 °F 73.4 °F 79% 29.97 in 10.0 mi West 3.5 mph - N/A   Clear
7:55 AM 82.4 °F 88.2 °F 73.4 °F 74% 29.98 in 10.0 mi WNW 8.1 mph - N/A Thunderstorm Scattered Clouds
8:15 AM 73.4 °F - 66.2 °F 78% 29.99 in 7.0 mi SW 11.5 mph - 0.01 in Rain , Thunderstorm Heavy Thunderstorms and Rain
8:35 AM 71.6 °F - 68.0 °F 88% 29.98 in 10.0 mi NNW 4.6 mph - 0.03 in Rain , Thunderstorm Light Thunderstorms and Rain
8:55 AM 71.6 °F - 69.8 °F 94% 29.98 in 10.0 mi Calm Calm - 0.03 in Rain , Thunderstorm Light Thunderstorms and Rain
9:15 AM 75.2 °F - 71.6 °F 89% 29.98 in 10.0 mi Calm Calm - N/A   Scattered Clouds
9:35 AM 78.8 °F - 69.8 °F 74% 29.98 in 10.0 mi Calm Calm - N/A   Scattered Clouds
9:55 AM 80.6 °F 83.2 °F 68.0 °F 65% 29.97 in 10.0 mi Calm Calm - N/A   Scattered Clouds
10:15 AM 80.6 °F 83.2 °F 68.0 °F 65% 29.97 in 10.0 mi Calm Calm - N/A   Scattered Clouds
10:35 AM 80.6 °F 83.2 °F 68.0 °F 65% 29.97 in 10.0 mi Calm Calm - N/A   Clear
10:55 AM 80.6 °F 83.2 °F 68.0 °F 65% 29.97 in 10.0 mi Calm Calm - N/A   Clear
11:15 AM 82.4 °F 86.3 °F 69.8 °F 66% 29.98 in 10.0 mi Calm Calm - N/A   Clear
11:35 AM 80.6 °F 83.9 °F 69.8 °F 70% 29.98 in 10.0 mi Calm Calm - N/A   Clear
11:55 AM 82.4 °F 86.3 °F 69.8 °F 66% 29.98 in 10.0 mi Calm Calm - N/A   Clear
12:15 PM 82.4 °F 86.3 °F 69.8 °F 66% 29.98 in 10.0 mi West 4.6 mph - N/A   Clear
12:35 PM 82.4 °F 87.2 °F 71.6 °F 70% 29.99 in 10.0 mi West 5.8 mph - N/A Thunderstorm Thunderstorm
12:55 PM 75.2 °F - 68.0 °F 78% 29.99 in 7.0 mi North - - 0.02 in Rain , Thunderstorm Rain
1:15 PM 71.6 °F - 68.0 °F 88% 29.98 in 10.0 mi West 4.6 mph - 0.01 in Rain Light Rain
1:35 PM 71.6 °F - 69.8 °F 94% 29.98 in 7.0 mi Calm Calm - 0.03 in Rain Rain
1:55 PM 71.6 °F - 69.8 °F 94% 29.97 in 7.0 mi Calm Calm - 0.06 in Rain Light Rain
2:15 PM 73.4 °F - 69.8 °F 88% 29.96 in 10.0 mi East 4.6 mph - N/A   Mostly Cloudy
2:35 PM 73.4 °F - 69.8 °F 88% 29.97 in 10.0 mi Calm Calm - N/A   Scattered Clouds
2:55 PM 75.2 °F - 69.8 °F 83% 29.96 in 10.0 mi Calm Calm - N/A   Mostly Cloudy
3:15 PM 77.0 °F - 68.0 °F 74% 29.94 in 10.0 mi Calm Calm - N/A   Overcast
3:35 PM 77.0 °F - 69.8 °F 78% 29.93 in 10.0 mi Calm Calm - N/A   Scattered Clouds
3:55 PM 78.8 °F - 69.8 °F 74% 29.93 in 10.0 mi Calm Calm - N/A   Clear
4:15 PM 78.8 °F - 69.8 °F 74% 29.93 in 10.0 mi Calm Calm - N/A   Clear
4:35 PM 78.8 °F - 69.8 °F 74% 29.93 in 10.0 mi Calm Calm - N/A   Clear
4:55 PM 78.8 °F - 71.6 °F 78% 29.93 in 10.0 mi Calm Calm - N/A   Clear
5:15 PM 80.6 °F 84.6 °F 71.6 °F 74% 29.93 in 10.0 mi SSE 4.6 mph - N/A   Clear
5:35 PM 80.6 °F 83.9 °F 69.8 °F 70% 29.93 in 10.0 mi SSE 3.5 mph - N/A   Clear
5:55 PM 78.8 °F - 71.6 °F 78% 29.93 in 10.0 mi ESE 4.6 mph - N/A   Clear
6:15 PM 78.8 °F - 71.6 °F 78% 29.93 in 10.0 mi Calm Calm - N/A Thunderstorm Clear
6:35 PM 78.8 °F - 71.6 °F 78% 29.94 in 10.0 mi Calm Calm - N/A   Scattered Clouds
6:55 PM 78.8 °F - 73.4 °F 83% 29.94 in 10.0 mi Calm Calm - N/A Rain , Thunderstorm Light Thunderstorms and Rain
7:15 PM 78.8 °F - 73.4 °F 83% 29.95 in 10.0 mi SSW 3.5 mph - N/A Rain , Thunderstorm Light Thunderstorms and Rain
7:35 PM 75.2 °F - 68.0 °F 78% 29.96 in 10.0 mi West 19.6 mph 25.3 mph 0.02 in Rain , Thunderstorm Thunderstorms and Rain
7:55 PM 71.6 °F - 68.0 °F 88% 29.95 in 5.0 mi West 4.6 mph - 0.29 in Rain , Thunderstorm Light Thunderstorms and Rain
8:15 PM 71.6 °F - 68.0 °F 88% 29.94 in 7.0 mi Calm Calm - 0.02 in Rain , Thunderstorm Light Thunderstorms and Rain
8:35 PM 71.6 °F - 69.8 °F 94% 29.92 in 7.0 mi SE 6.9 mph - 0.04 in Rain , Thunderstorm Rain
8:55 PM 71.6 °F - 69.8 °F 94% 29.93 in 10.0 mi East 4.6 mph - 0.05 in Rain Light Rain
9:15 PM 71.6 °F - 69.8 °F 94% 29.94 in 10.0 mi ENE 4.6 mph - N/A Rain Light Rain
9:35 PM 71.6 °F - 69.8 °F 94% 29.95 in 10.0 mi Calm Calm - N/A Thunderstorm Clear
9:55 PM 71.6 °F - 69.8 °F 94% 29.94 in 10.0 mi Calm Calm - N/A   Scattered Clouds
10:15 PM 73.4 °F - 69.8 °F 88% 29.95 in 10.0 mi ESE 4.6 mph - N/A   Mostly Cloudy
10:35 PM 73.4 °F - 69.8 °F 88% 29.94 in 10.0 mi SE 5.8 mph - N/A   Scattered Clouds
10:55 PM 73.4 °F - 71.6 °F 94% 29.94 in 10.0 mi Calm Calm - N/A   Mostly Cloudy
11:15 PM 75.2 °F - 69.8 °F 83% 29.93 in 10.0 mi East 5.8 mph - N/A   Overcast
11:35 PM 77.0 °F - 69.8 °F 78% 29.94 in 10.0 mi SE 5.8 mph - N/A Thunderstorm Overcast
11:55 PM 73.4 °F - 69.8 °F 88% 29.96 in 4.0 mi SW 10.4 mph - 0.11 in Rain , Thunderstorm Thunderstorms and Rain